Temperature
29 29 29 29 28 28 27 26 25 25 25 25 24 24 23 22 21 20 19 18 16 15 15 14 13 12 12 11 11 10 10 9 9 9 8 8 8 8 8 8 7 7 7 7
28 29 29 28 28 28 27 27 26 26 25 26 24 24 22 21 20 19 18 17 16 15 14 13 12 12 11 11 10 10 9 9 8 8 8 8 8 8 8 7 7 7 7 7
26 28 28 27 28 28 27 27 26 25 25 25 24 23 22 21 20 19 17 16 15 14 14 13 12 12 11 10 10 9 9 8 8 8 8 8 8 7 7 7 7 7 7 7
26 27 25 28 29 28 27 27 26 26 25 24 24 23 21 20 19 17 17 16 15 14 13 13 12 11 11 10 10 9 9 8 8 8 8 7 7 7 7 7 7 7 7 7
26 26 26 28 28 27 26 26 26 25 24 24 23 22 21 18 18 17 16 15 14 13 13 12 12 11 10 10 9 9 8 8 8 7 7 7 7 7 7 7 7 7 7 6
26 25 25 27 28 27 26 25 25 25 24 23 23 22 21 19 18 16 15 14 14 13 12 12 11 10 10 9 9 8 8 8 8 7 7 7 7 7 7 7 7 7 7 6
26 25 26 28 27 27 25 24 24 24 23 22 22 20 19 18 17 16 15 14 14 13 12 11 11 10 9 9 9 8 8 8 8 7 7 7 7 7 7 7 7 7 7 7
26 26 26 27 26 26 25 24 24 23 23 22 21 20 19 18 17 16 15 14 13 12 12 11 10 10 9 9 8 8 8 8 8 7 7 7 7 8 7 7 7 7 7 7
27 26 26 26 26 26 25 24 24 23 23 21 20 20 19 18 17 16 15 14 13 12 11 11 10 9 9 8 8 8 8 8 8 8 8 8 8 8 8 7 7 7 7 6
26 27 27 27 26 26 25 24 24 23 22 21 20 19 18 17 16 15 14 13 12 12 11 11 10 9 9 8 8 8 8 8 8 7 8 8 8 8 8 7 7 7 6 6
26 27 27 27 26 26 25 24 24 23 22 21 20 19 18 17 16 15 14 13 12 11 11 10 10 9 8 8 8 8 8 7 7 7 8 8 8 8 8 8 7 7 6 6
26 27 26 26 26 26 25 24 24 23 22 21 20 18 17 16 15 14 14 13 12 11 11 10 9 9 8 8 7 7 7 7 7 7 7 8 8 8 8 8 8 7 7 6
27 27 27 26 26 26 25 24 23 22 21 20 19 18 17 16 15 14 13 13 12 11 10 10 9 8 8 8 7 7 7 7 7 7 7 8 8 8 8 8 8 8 7 7
27 26 26 26 25 25 25 24 23 22 21 20 19 18 17 16 15 14 13 12 12 11 10 10 9 8 8 8 8 7 7 7 7 7 8 8 8 8 8 8 8 8 8 7
26 26 26 25 25 25 24 24 23 22 21 20 19 18 17 16 15 14 13 12 11 11 10 9 8 8 8 8 7 7 7 7 7 8 8 8 8 9 9 9 8 8 8 7
25 25 26 25 25 24 24 24 23 22 21 20 19 18 17 16 15 14 13 12 11 11 9 9 8 8 8 8 7 8 8 8 8 8 8 8 9 9 9 9 8 8 8 8
24 24 24 24 24 24 24 23 23 22 21 21 19 18 16 15 14 13 13 12 11 10 9 9 8 8 8 8 7 7 8 8 8 8 8 9 9 9 9 9 9 8 8 8
23 23 23 23 23 23 23 23 22 22 21 20 19 17 16 15 14 13 12 11 11 10 10 9 8 8 8 7 7 8 8 8 8 8 8 9 9 9 9 9 9 8 8 8
21 21 21 22 22 22 22 22 22 21 20 19 18 17 15 14 13 13 12 11 11 11 10 9 9 8 7 8 8 8 8 8 8 8 8 9 9 9 9 9 9 9 8 8
19 19 19 20 20 21 21 21 21 20 19 18 17 16 15 14 13 12 12 11 11 11 10 9 9 8 8 8 8 8 8 8 8 8 8 9 9 9 9 9 9 9 9 8
17 17 17 18 18 18 19 19 19 19 18 17 16 15 14 14 13 12 12 12 11 11 10 9 8 8 8 9 9 8 8 8 8 8 8 8 9 9 9 9 9 9 9 9
15 15 16 16 16 17 17 17 18 18 17 16 16 15 14 14 13 13 12 12 11 11 10 9 8 8 8 9 8 8 8 8 8 8 8 8 8 9 9 9 9 9 9 9
14 14 14 15 15 15 16 16 17 17 17 16 15 14 14 14 13 13 12 12 11 11 10 9 8 8 8 8 7 7 8 8 8 8 8 8 8 9 9 9 9 9 9 9
13 13 14 14 14 15 15 15 16 16 16 16 15 15 14 13 13 13 12 12 12 11 10 9 8 8 7 7 7 7 8 8 8 8 8 8 8 9 9 9 9 9 10 10
13 13 13 13 13 14 15 15 16 16 16 16 15 15 14 13 13 12 12 11 11 11 9 8 8 7 6 6 6 7 7 8 8 8 8 8 8 8 9 9 9 9 10 10
12 12 13 13 13 13 14 14 15 15 16 16 15 15 14 13 12 12 11 11 10 9 9 8 7 7 6 6 6 6 7 7 7 8 8 8 8 8 8 9 9 9 10 10
12 13 13 13 13 13 14 14 14 14 14 14 14 14 14 13 12 11 11 10 9 9 8 8 7 6 6 5 5 5 6 6 7 7 7 7 8 8 8 8 9 9 9 10
Wind_Speed
9 7 6 8 8 6 6 7 8 10 11 10 11 10 9 9 10 10 10 10 11 10 9 9 9 9 10 11 10 10 12 12 12 12 11 11 11 11 11 11 14 12 11 12
12 11 7 10 9 6 5 7 8 10 10 10 11 11 10 10 11 9 10 12 12 12 11 11 10 10 10 11 10 10 11 13 13 13 12 12 12 12 12 11 12 12 12 14
12 11 11 10 4 2 5 7 7 10 9 10 12 11 11 10 9 8 11 12 13 12 11 10 10 9 10 10 11 11 12 13 13 13 13 13 15 14 13 13 12 13 13 14
12 14 14 7 2 1 3 5 7 8 6 9 10 9 8 7 7 9 11 12 12 12 12 12 11 11 10 12 11 12 13 13 13 13 15 14 14 14 13 12 12 12 13 14
9 13 12 3 3 3 2 8 6 4 7 10 11 11 5 8 7 8 10 10 11 12 13 12 12 11 12 13 12 13 14 14 14 15 15 15 15 14 13 12 12 13 13 13
10 14 16 15 7 7 3 3 8 6 8 10 11 10 7 9 9 9 10 10 11 12 12 11 10 11 12 13 13 13 14 15 15 15 15 16 15 14 13 11 13 13 13 12
12 14 11 7 10 1 6 4 3 7 7 8 7 7 8 9 9 9 9 10 11 11 11 10 10 10 12 13 12 13 14 15 16 15 15 15 13 11 11 11 12 12 12 11
11 12 5 8 0 5 5 2 4 6 6 6 6 7 8 8 8 9 10 11 11 10 10 9 9 10 12 12 12 13 14 15 16 16 16 14 12 12 11 11 11 10 10 9
7 7 1 3 6 5 4 4 4 6 6 5 6 7 8 8 8 9 10 10 11 11 11 10 9 10 12 12 12 13 15 16 16 17 15 13 12 11 10 9 8 8 7 7
8 10 9 10 10 6 5 5 5 5 4 5 6 7 7 7 7 8 9 10 10 12 12 11 10 11 11 11 12 13 15 16 15 15 15 12 9 9 8 8 8 8 8 7
14 12 12 12 9 8 7 7 7 5 5 5 5 6 7 6 7 7 8 9 10 10 11 12 11 11 11 11 12 14 15 15 15 14 14 11 10 8 8 6 5 6 7 7
11 9 7 9 10 10 8 8 8 7 7 5 5 5 6 6 6 7 8 9 10 11 12 12 12 11 10 10 11 13 14 14 12 13 12 11 10 9 6 6 5 7 7 6
13 12 11 11 11 9 7 8 9 8 7 6 5 5 5 6 6 7 8 9 10 11 12 11 11 11 11 11 12 13 13 13 12 12 12 11 10 9 8 5 7 9 9 9
12 11 11 11 12 11 11 10 9 8 8 7 6 5 5 6 6 7 8 9 10 11 11 11 11 11 11 11 13 13 14 13 12 11 11 11 10 9 7 7 6 4 6 9
13 12 11 11 11 11 11 10 9 9 9 9 8 6 5 5 6 7 7 8 9 10 11 11 11 11 11 12 13 14 13 11 11 12 12 11 9 9 7 7 6 5 2 3
14 14 12 11 10 11 12 11 11 11 10 9 7 5 4 4 5 6 7 8 9 10 10 10 10 11 12 12 13 12 11 14 13 12 12 10 8 8 6 6 6 5 4 3
11 11 12 12 12 12 12 12 12 11 11 9 7 5 4 4 5 6 6 7 8 9 9 8 9 11 12 11 11 11 11 12 15 12 10 10 8 6 6 6 6 5 4 3
10 12 12 12 13 13 13 12 12 11 9 7 6 5 5 5 5 6 7 8 9 9 7 6 8 11 11 10 10 10 10 10 11 11 10 9 9 7 5 5 6 5 4 2
11 13 14 14 13 12 11 11 9 7 6 6 5 5 5 5 5 5 6 8 10 9 5 7 8 10 9 9 11 9 10 11 10 10 10 10 8 6 5 4 5 5 4 4
15 15 16 16 15 13 10 8 6 4 3 5 6 6 6 6 5 5 6 8 7 3 5 7 9 8 9 10 12 10 10 10 10 10 10 9 8 7 6 5 5 5 5 5
15 15 16 16 16 16 13 11 7 5 4 6 7 7 7 7 6 6 6 8 2 3 4 8 6 5 8 11 12 9 9 9 9 9 10 9 8 8 6 5 4 4 4 4
15 15 16 15 15 15 14 13 10 8 7 7 9 10 9 9 8 7 7 6 1 4 3 6 4 6 10 12 8 8 8 9 9 8 9 9 8 8 6 5 4 3 3 3
14 15 15 15 15 15 15 15 14 10 9 9 11 11 11 9 6 5 6 3 4 4 2 3 3 6 12 9 7 7 8 8 9 9 9 9 9 7 6 6 4 3 3 3
16 17 17 17 17 17 16 16 15 11 11 10 12 12 12 10 8 8 6 6 7 4 1 4 2 5 10 6 6 7 7 8 8 9 9 9 9 8 7 6 5 4 4 4
18 18 19 18 17 16 14 15 14 12 14 12 14 14 14 12 10 7 5 8 10 6 2 6 7 6 6 5 6 6 7 7 8 9 9 9 9 8 7 6 5 5 5 5
16 16 15 15 15 14 16 15 14 13 12 11 11 12 12 10 10 7 5 6 8 6 4 2 2 3 4 5 6 6 7 8 8 8 9 9 9 8 8 8 8 6 6 6
16 15 11 12 12 12 13 13 12 12 11 11 10 8 8 8 8 8 7 5 5 5 2 0 2 3 5 6 6 6 7 7 8 8 9 9 9 9 9 9 8 7 7 7
Wind_Direction
318 317 316 323 322 327 326 324 316 330 330 4 22 360 352 349 350 343 344 342 340 336 331 329 326 324 320 318 318 319 316 312 309 307 304 300 298 297 295 293 293 290 290 287
306 306 284 295 290 277 292 297 302 315 323 16 5 354 349 345 336 334 342 338 334 331 331 327 324 320 322 319 319 319 315 311 309 306 303 302 300 296 294 292 292 291 288 285
306 308 300 302 294 240 310 314 314 311 333 5 349 342 334 327 328 346 342 334 333 333 328 323 319 322 321 320 319 317 314 311 310 309 307 306 306 304 299 297 295 290 286 282
295 302 296 307 118 57 344 323 303 306 359 2 342 341 344 30 23 348 337 337 335 328 324 321 323 323 321 319 317 315 313 313 314 312 309 308 304 300 298 298 294 290 286 283
295 295 300 319 198 162 328 311 320 4 3 344 344 326 68 58 8 349 345 335 327 324 322 322 323 326 323 318 316 315 316 317 316 313 309 306 303 301 301 298 295 290 288 283
276 289 293 302 114 107 339 344 59 21 354 343 334 322 345 10 356 352 339 329 326 325 322 322 329 329 322 318 317 319 321 318 314 310 306 303 300 300 300 299 296 295 292 288
268 278 293 88 112 279 319 47 12 351 348 332 338 320 323 331 341 339 331 329 330 329 324 325 328 327 320 318 320 324 320 314 311 309 306 300 299 300 301 302 301 300 297 293
279 283 299 117 82 330 352 344 324 331 326 327 319 311 316 327 333 332 332 331 333 327 324 325 329 327 321 322 325 323 319 314 312 311 309 307 305 303 304 304 305 305 306 305
302 316 135 222 280 303 304 289 291 300 318 320 309 310 317 324 331 331 329 332 329 327 325 327 331 329 323 325 326 323 319 316 314 311 308 305 304 307 309 308 311 313 317 317
292 288 283 282 292 284 266 259 261 277 289 289 292 303 312 320 325 326 330 328 329 327 325 327 331 330 327 327 327 322 319 317 314 312 310 311 310 311 311 315 319 321 324 327
274 274 274 274 278 276 260 244 241 247 256 265 277 291 304 314 321 326 323 326 327 324 324 326 330 328 330 331 329 322 319 316 316 314 311 310 310 307 304 312 311 302 313 321
298 303 293 292 287 271 248 239 240 240 248 257 268 284 299 310 318 317 320 326 325 326 325 326 326 328 332 334 330 321 317 318 316 313 313 313 313 314 295 282 258 249 258 276
288 285 280 282 284 278 252 244 241 228 224 238 252 268 286 297 305 314 322 326 327 325 324 322 324 330 335 335 326 318 314 314 313 311 311 312 313 316 317 291 249 250 254 258
292 280 272 273 279 281 271 257 245 230 216 218 230 243 265 286 303 315 321 322 322 323 320 324 329 331 335 331 322 317 315 312 311 311 311 310 313 314 310 312 311 292 237 236
296 283 272 268 261 268 267 254 241 231 224 221 220 227 252 280 299 309 314 319 322 320 325 330 327 329 334 327 320 317 316 315 316 313 309 307 310 309 312 322 320 320 312 214
294 290 284 279 272 273 270 256 242 236 234 231 222 222 245 272 291 303 312 321 324 325 325 321 323 332 332 324 320 317 315 313 312 310 308 308 311 318 330 332 327 329 327 319
306 305 305 303 295 282 270 257 245 237 235 232 216 211 226 257 282 298 314 323 323 316 310 319 331 335 325 320 322 319 317 317 314 312 314 317 320 325 330 326 330 336 336 350
333 325 318 310 302 295 286 270 249 235 225 221 213 207 219 245 275 299 311 315 312 306 316 343 347 327 316 325 330 319 315 316 320 322 322 322 323 319 319 326 338 340 331 309
3 351 339 327 315 301 292 285 271 246 213 195 196 210 223 246 263 285 302 309 302 303 346 349 336 311 321 341 339 315 315 319 323 325 326 325 323 323 328 337 341 343 344 343
16 8 360 350 341 332 321 310 296 267 202 183 195 208 222 240 260 279 292 292 293 333 343 334 317 318 334 342 335 315 317 325 329 331 331 334 335 333 341 345 347 351 351 342
10 5 1 357 353 347 339 328 309 274 223 202 204 216 224 231 242 255 270 284 310 80 331 299 290 347 346 332 311 313 326 332 332 333 333 334 334 336 345 343 338 351 353 342
356 353 350 346 344 340 334 323 304 279 243 213 212 220 225 228 234 243 247 252 193 112 313 310 4 12 338 320 312 326 335 336 334 333 333 334 334 337 345 344 339 350 353 342
337 334 331 329 326 320 313 309 300 283 256 225 217 220 225 228 231 241 257 206 154 125 296 343 39 342 322 314 326 339 342 341 337 336 335 333 331 337 347 347 348 357 352 353
320 318 315 313 309 303 296 291 288 281 264 239 229 221 222 228 227 226 225 146 140 143 282 123 146 307 299 311 342 348 346 343 340 337 333 332 335 341 347 349 355 3 354 8
309 308 306 302 299 294 290 284 279 267 261 252 242 231 225 223 226 226 189 159 156 171 218 169 189 254 295 348 358 354 349 350 340 330 331 336 341 345 349 352 357 357 359 13
300 296 295 292 291 289 291 289 287 285 279 270 257 243 230 219 211 197 177 179 176 181 219 210 207 248 343 5 7 2 358 351 345 341 341 339 345 351 351 352 356 7 11 14
291 290 290 295 307 313 317 318 316 314 311 303 291 266 231 210 193 187 188 194 184 187 195 166 25 31 20 16 15 11 9 2 354 348 346 345 348 349 350 352 1 10 18 23
Height
1480 1476 1477 1479 1479 1480 1486 1490 1496 1494 1492 1488 1490 1493 1494 1496 1497 1498 1498 1497 1496 1494 1491 1488 1486 1483 1480 1477 1473 1470 1465 1462 1458 1454 1450 1446 1442 1439 1435 1432 1429 1426 1423 1420
1484 1477 1476 1479 1476 1479 1483 1485 1487 1489 1490 1487 1490 1492 1494 1495 1496 1495 1495 1495 1493 1491 1488 1485 1482 1479 1476 1473 1469 1466 1461 1457 1453 1449 1445 1441 1437 1433 1429 1426 1422 1419 1416 1413
1493 1480 1479 1484 1474 1476 1480 1480 1484 1490 1489 1488 1490 1492 1493 1493 1493 1494 1494 1492 1490 1488 1485 1482 1479 1476 1472 1469 1465 1461 1457 1453 1448 1444 1440 1436 1431 1427 1423 1420 1416 1412 1408 1405
1491 1489 1500 1479 1468 1472 1478 1480 1481 1482 1484 1488 1490 1490 1491 1490 1492 1493 1492 1490 1487 1485 1482 1479 1475 1472 1469 1465 1461 1457 1453 1448 1444 1439 1434 1430 1425 1421 1417 1413 1409 1405 1401 1397
1494 1494 1486 1475 1470 1473 1479 1481 1478 1482 1486 1488 1488 1489 1489 1491 1492 1491 1489 1487 1484 1481 1478 1475 1472 1468 1465 1461 1457 1453 1448 1443 1438 1434 1428 1424 1419 1415 1412 1407 1402 1398 1393 1389
1491 1498 1498 1476 1468 1473 1478 1483 1483 1484 1487 1488 1488 1488 1488 1489 1489 1488 1486 1484 1481 1478 1475 1471 1468 1464 1460 1457 1453 1448 1444 1438 1433 1428 1423 1418 1414 1410 1406 1402 1396 1391 1387 1383
1488 1489 1478 1468 1472 1474 1484 1489 1484 1484 1486 1487 1487 1489 1489 1487 1486 1485 1483 1481 1478 1474 1471 1468 1464 1460 1456 1453 1448 1444 1438 1433 1428 1423 1418 1414 1410 1406 1401 1396 1391 1386 1381 1377
1480 1486 1485 1473 1474 1476 1481 1480 1481 1483 1484 1485 1486 1486 1486 1485 1484 1482 1480 1478 1475 1471 1468 1465 1461 1457 1453 1448 1444 1439 1434 1428 1423 1418 1413 1410 1405 1401 1397 1392 1387 1382 1377 1373
1474 1478 1474 1473 1473 1474 1476 1477 1479 1481 1482 1483 1483 1483 1483 1482 1481 1479 1477 1474 1471 1468 1465 1461 1458 1453 1449 1444 1439 1434 1429 1424 1418 1413 1409 1405 1402 1397 1393 1389 1384 1379 1375 1371
1470 1468 1469 1469 1469 1470 1472 1474 1476 1478 1479 1480 1480 1480 1480 1479 1478 1476 1474 1471 1468 1465 1461 1458 1454 1450 1446 1441 1436 1430 1425 1420 1414 1410 1405 1402 1398 1394 1390 1386 1381 1377 1373 1369
1467 1464 1464 1465 1465 1467 1468 1470 1472 1474 1475 1476 1477 1477 1477 1476 1475 1473 1471 1468 1465 1462 1458 1455 1451 1446 1442 1437 1432 1427 1421 1416 1411 1407 1403 1399 1395 1392 1387 1383 1379 1375 1371 1368
1463 1461 1462 1463 1464 1463 1464 1466 1468 1470 1472 1473 1474 1474 1473 1473 1472 1470 1468 1465 1462 1459 1455 1451 1447 1443 1438 1434 1429 1423 1418 1413 1408 1404 1400 1396 1392 1388 1385 1381 1377 1372 1369 1366
1457 1456 1457 1458 1459 1459 1460 1462 1464 1465 1467 1469 1470 1470 1470 1469 1468 1467 1464 1462 1459 1455 1452 1448 1444 1440 1435 1430 1425 1420 1416 1411 1406 1401 1398 1394 1390 1386 1382 1378 1374 1370 1367 1364
1454 1453 1454 1455 1456 1456 1456 1457 1459 1461 1463 1465 1466 1467 1467 1466 1465 1463 1461 1459 1456 1452 1449 1445 1441 1437 1432 1427 1422 1417 1413 1408 1404 1399 1395 1392 1388 1384 1380 1376 1372 1368 1365 1363
1450 1450 1449 1450 1451 1452 1452 1453 1454 1456 1459 1460 1462 1462 1463 1463 1462 1460 1458 1455 1452 1449 1446 1442 1438 1434 1429 1424 1419 1415 1410 1406 1401 1397 1393 1390 1387 1383 1379 1375 1371 1368 1364 1362
1448 1447 1446 1446 1446 1448 1448 1449 1450 1452 1454 1456 1457 1458 1459 1459 1458 1456 1455 1452 1449 1446 1442 1439 1435 1431 1426 1421 1416 1412 1408 1403 1399 1395 1391 1388 1385 1381 1378 1374 1371 1367 1364 1362
1446 1445 1444 1444 1444 1444 1444 1444 1445 1447 1449 1451 1452 1454 1454 1455 1454 1453 1451 1449 1446 1443 1439 1436 1432 1427 1423 1418 1414 1410 1405 1401 1397 1394 1390 1387 1384 1381 1377 1374 1370 1367 1364 1362
1446 1445 1444 1443 1443 1441 1440 1440 1440 1442 1444 1446 1448 1450 1451 1451 1450 1449 1447 1445 1443 1440 1437 1433 1428 1424 1420 1416 1412 1407 1404 1400 1396 1392 1389 1385 1382 1380 1376 1373 1370 1367 1364 1361
1445 1444 1444 1442 1441 1439 1438 1438 1438 1438 1440 1442 1444 1446 1447 1447 1447 1445 1444 1442 1439 1437 1434 1429 1425 1421 1417 1414 1410 1406 1402 1399 1395 1391 1388 1384 1381 1379 1376 1373 1370 1367 1364 1361
1446 1445 1443 1442 1440 1438 1437 1436 1436 1437 1438 1439 1441 1442 1443 1443 1443 1442 1440 1438 1437 1433 1430 1426 1421 1418 1415 1411 1407 1404 1401 1398 1394 1390 1387 1384 1381 1378 1376 1373 1370 1368 1365 1362
1448 1446 1444 1442 1440 1439 1437 1436 1435 1435 1435 1436 1437 1438 1438 1438 1438 1437 1435 1435 1433 1429 1427 1423 1419 1415 1412 1409 1405 1402 1399 1396 1393 1390 1387 1384 1381 1378 1376 1374 1371 1369 1366 1363
1450 1448 1445 1443 1441 1439 1437 1436 1434 1433 1432 1431 1432 1433 1433 1432 1431 1431 1430 1429 1428 1425 1423 1421 1417 1413 1409 1406 1403 1401 1398 1395 1392 1389 1386 1384 1381 1379 1377 1374 1372 1370 1367 1364
1451 1448 1445 1442 1439 1437 1435 1433 1431 1429 1427 1426 1425 1426 1426 1426 1425 1425 1425 1424 1422 1420 1419 1417 1413 1410 1407 1404 1402 1399 1396 1393 1391 1388 1386 1384 1382 1380 1378 1375 1373 1371 1369 1366
1448 1445 1442 1439 1435 1433 1430 1428 1425 1423 1421 1419 1418 1418 1419 1419 1418 1418 1418 1418 1417 1416 1414 1412 1410 1407 1404 1402 1400 1397 1394 1392 1390 1388 1385 1384 1382 1380 1379 1377 1375 1373 1371 1368
1443 1440 1437 1433 1430 1426 1423 1420 1417 1415 1413 1411 1410 1410 1410 1410 1411 1412 1412 1411 1411 1411 1410 1409 1407 1405 1403 1401 1398 1395 1393 1391 1389 1387 1385 1384 1382 1381 1380 1378 1377 1375 1373 1371
1437 1434 1431 1428 1424 1420 1417 1414 1411 1408 1405 1403 1402 1401 1401 1402 1404 1405 1406 1407 1407 1407 1407 1406 1405 1404 1402 1400 1397 1394 1392 1390 1388 1386 1384 1383 1382 1381 1380 1379 1378 1377 1375 1373
1431 1428 1424 1422 1419 1416 1412 1409 1406 1403 1400 1398 1395 1394 1394 1395 1396 1398 1400 1403 1404 1404 1404 1404 1403 1402 1400 1397 1395 1392 1390 1388 1387 1385 1384 1382 1382 1381 1380 1380 1379 1378 1377 1376